Time,TemperatureF,DewpointF,PressureIn,WindDirection,WindDirectionDegrees,WindSpeedMPH,WindSpeedGustMPH,Humidity,HourlyPrecipIn,Conditions,Clouds,dailyrainin,SoftwareType,DateUTC
2013-09-05 00:07:00,65.8,65.2,29.87,WNW,292,0.0,-999.0,98,-99.99,,,0.00,Acu-Link.com,2013-09-05 04:07:00,
2013-09-05 00:22:00,65.5,64.9,29.88,NW,315,1.7,-999.0,98,-99.99,,,0.00,Acu-Link.com,2013-09-05 04:22:00,
2013-09-05 00:38:00,64.9,64.3,29.87,NW,315,0.0,-999.0,98,-99.99,,,0.00,Acu-Link.com,2013-09-05 04:38:00,
2013-09-05 00:53:00,64.0,63.4,29.88,ENE,67,1.1,-999.0,98,-99.99,,,0.00,Acu-Link.com,2013-09-05 04:53:00,
2013-09-05 01:08:00,63.5,62.9,29.89,WNW,292,4.7,-999.0,98,-99.99,,,0.00,Acu-Link.com,2013-09-05 05:08:00,
2013-09-05 01:23:00,62.6,62.0,29.89,North,0,2.2,-999.0,98,-99.99,,,0.00,Acu-Link.com,2013-09-05 05:23:00,
2013-09-05 01:38:00,61.9,61.3,29.90,NNE,22,0.0,-999.0,98,-99.99,,,0.00,Acu-Link.com,2013-09-05 05:38:00,
2013-09-05 01:53:00,61.7,61.1,29.89,WNW,292,0.0,-999.0,98,-99.99,,,0.00,Acu-Link.com,2013-09-05 05:53:00,
2013-09-05 02:09:00,61.0,60.4,29.89,SE,135,1.7,-999.0,98,-99.99,,,0.00,Acu-Link.com,2013-09-05 06:09:00,
2013-09-05 02:24:00,60.4,59.8,29.91,NW,315,0.0,-999.0,98,-99.99,,,0.00,Acu-Link.com,2013-09-05 06:24:00,
2013-09-05 02:39:00,59.5,58.9,29.91,NW,315,1.1,-999.0,98,-99.99,,,0.00,Acu-Link.com,2013-09-05 06:39:00,
2013-09-05 02:54:00,58.8,58.2,29.91,NNE,22,0.0,-999.0,98,-99.99,,,0.00,Acu-Link.com,2013-09-05 06:54:00,
2013-09-05 03:10:00,58.3,57.7,29.91,WNW,292,0.0,-999.0,98,-99.99,,,0.00,Acu-Link.com,2013-09-05 07:10:00,
2013-09-05 03:25:00,57.7,57.1,29.92,ESE,112,0.0,-999.0,98,-99.99,,,0.00,Acu-Link.com,2013-09-05 07:25:00,
2013-09-05 03:40:00,56.8,56.2,29.92,ESE,112,0.0,-999.0,98,-99.99,,,0.00,Acu-Link.com,2013-09-05 07:40:00,
2013-09-05 03:56:00,56.3,55.7,29.93,ESE,112,0.0,-999.0,98,-99.99,,,0.00,Acu-Link.com,2013-09-05 07:56:00,
2013-09-05 04:12:00,55.9,55.3,29.93,ESE,112,0.0,-999.0,98,-99.99,,,0.00,Acu-Link.com,2013-09-05 08:12:00,
2013-09-05 04:28:00,55.8,55.2,29.93,ESE,112,0.0,-999.0,98,-99.99,,,0.00,Acu-Link.com,2013-09-05 08:28:00,
2013-09-05 04:43:00,55.4,54.8,29.94,ESE,112,0.0,-999.0,98,-99.99,,,0.00,Acu-Link.com,2013-09-05 08:43:00,
2013-09-05 04:58:00,54.9,54.3,29.94,ESE,112,0.0,-999.0,98,-99.99,,,0.00,Acu-Link.com,2013-09-05 08:58:00,
2013-09-05 05:13:00,54.5,53.9,29.95,ESE,112,0.0,-999.0,98,-99.99,,,0.00,Acu-Link.com,2013-09-05 09:13:00,
2013-09-05 05:28:00,54.0,53.4,29.96,ESE,112,0.0,-999.0,98,-99.99,,,0.00,Acu-Link.com,2013-09-05 09:28:00,
2013-09-05 05:44:00,53.6,53.0,29.97,ESE,112,0.0,-999.0,98,-99.99,,,0.00,Acu-Link.com,2013-09-05 09:44:00,
2013-09-05 05:59:00,53.4,52.8,29.97,ESE,112,0.0,-999.0,98,-99.99,,,0.00,Acu-Link.com,2013-09-05 09:59:00,
2013-09-05 06:14:00,53.2,52.6,29.97,ESE,112,0.0,-999.0,98,-99.99,,,0.00,Acu-Link.com,2013-09-05 10:14:00,
2013-09-05 06:29:00,53.1,52.5,29.97,ESE,112,0.0,-999.0,98,-99.99,,,0.00,Acu-Link.com,2013-09-05 10:29:00,
2013-09-05 06:44:00,52.7,52.2,29.98,ESE,112,0.0,-999.0,98,-99.99,,,0.00,Acu-Link.com,2013-09-05 10:44:00,
2013-09-05 07:00:00,52.5,52.0,29.99,ESE,112,0.0,-999.0,98,-99.99,,,0.00,Acu-Link.com,2013-09-05 11:00:00,
2013-09-05 07:15:00,52.9,52.4,29.99,ESE,112,0.0,-999.0,98,-99.99,,,0.00,Acu-Link.com,2013-09-05 11:15:00,
2013-09-05 07:30:00,53.6,53.0,29.99,ESE,112,0.0,-999.0,98,-99.99,,,0.00,Acu-Link.com,2013-09-05 11:30:00,
2013-09-05 07:45:00,54.9,54.3,30.00,ESE,112,0.0,-999.0,98,-99.99,,,0.00,Acu-Link.com,2013-09-05 11:45:00,
2013-09-05 08:00:00,55.6,55.0,30.01,ESE,112,0.0,-999.0,98,-99.99,,,0.00,Acu-Link.com,2013-09-05 12:00:00,
2013-09-05 08:16:00,56.8,56.2,30.01,ESE,112,0.0,-999.0,98,-99.99,,,0.00,Acu-Link.com,2013-09-05 12:16:00,
2013-09-05 08:31:00,58.5,57.9,30.03,SW,225,0.0,-999.0,98,-99.99,,,0.00,Acu-Link.com,2013-09-05 12:31:00,
2013-09-05 08:46:00,59.5,58.9,30.02,West,270,0.0,-999.0,98,-99.99,,,0.00,Acu-Link.com,2013-09-05 12:46:00,
2013-09-05 09:02:00,61.0,60.4,30.03,West,270,0.0,-999.0,98,-99.99,,,0.00,Acu-Link.com,2013-09-05 13:02:00,
2013-09-05 09:17:00,63.3,60.6,30.03,ESE,112,2.2,-999.0,91,-99.99,,,0.00,Acu-Link.com,2013-09-05 13:17:00,
2013-09-05 09:32:00,64.4,60.1,30.04,NW,315,2.7,-999.0,86,-99.99,,,0.00,Acu-Link.com,2013-09-05 13:32:00,
2013-09-05 09:48:00,66.0,60.3,30.03,West,270,2.7,-999.0,82,-99.99,,,0.00,Acu-Link.com,2013-09-05 13:48:00,
2013-09-05 10:03:00,67.6,60.5,30.04,NNE,22,2.2,-999.0,78,-99.99,,,0.00,Acu-Link.com,2013-09-05 14:03:00,
2013-09-05 10:18:00,65.5,60.2,30.03,WNW,292,2.2,-999.0,83,-99.99,,,0.00,Acu-Link.com,2013-09-05 14:18:00,
2013-09-05 10:34:00,64.6,59.0,30.04,NW,315,3.7,-999.0,82,-99.99,,,0.00,Acu-Link.com,2013-09-05 14:34:00,
2013-09-05 10:49:00,65.3,59.0,30.04,WNW,292,4.2,-999.0,80,-99.99,,,0.00,Acu-Link.com,2013-09-05 14:49:00,
2013-09-05 11:04:00,67.5,58.9,30.04,NNW,337,2.7,-999.0,74,-99.99,,,0.00,Acu-Link.com,2013-09-05 15:04:00,
2013-09-05 11:20:00,66.7,58.1,30.04,NNW,337,3.2,-999.0,74,-99.99,,,0.00,Acu-Link.com,2013-09-05 15:20:00,
2013-09-05 11:35:00,67.5,58.5,30.05,NE,45,2.2,-999.0,73,-99.99,,,0.00,Acu-Link.com,2013-09-05 15:35:00,
2013-09-05 11:50:00,66.6,56.5,30.06,NNE,22,2.7,-999.0,70,-99.99,,,0.00,Acu-Link.com,2013-09-05 15:50:00,
2013-09-05 12:05:00,67.8,56.8,30.06,WNW,292,2.2,-999.0,68,-99.99,,,0.00,Acu-Link.com,2013-09-05 16:05:00,
2013-09-05 12:20:00,68.4,53.5,30.06,North,0,2.2,-999.0,59,-99.99,,,0.00,Acu-Link.com,2013-09-05 16:20:00,
2013-09-05 12:35:00,67.6,54.5,30.05,WNW,292,1.7,-999.0,63,-99.99,,,0.00,Acu-Link.com,2013-09-05 16:35:00,
2013-09-05 12:51:00,66.9,53.9,30.06,WNW,292,3.7,-999.0,63,-99.99,,,0.00,Acu-Link.com,2013-09-05 16:51:00,
2013-09-05 13:06:00,67.5,53.1,30.08,NNE,22,3.2,-999.0,60,-99.99,,,0.00,Acu-Link.com,2013-09-05 17:06:00,
2013-09-05 13:21:00,66.4,52.1,30.08,SE,135,2.2,-999.0,60,-99.99,,,0.00,Acu-Link.com,2013-09-05 17:21:00,
2013-09-05 13:37:00,65.8,51.5,30.07,North,0,1.7,-999.0,60,-99.99,,,0.00,Acu-Link.com,2013-09-05 17:37:00,
2013-09-05 13:52:00,67.1,51.4,30.06,NW,315,3.2,-999.0,57,-99.99,,,0.00,Acu-Link.com,2013-09-05 17:52:00,
2013-09-05 14:07:00,67.6,50.4,30.06,NW,315,8.3,-999.0,54,-99.99,,,0.00,Acu-Link.com,2013-09-05 18:07:00,
2013-09-05 14:22:00,68.5,51.2,30.06,East,90,2.7,-999.0,54,-99.99,,,0.00,Acu-Link.com,2013-09-05 18:22:00,
2013-09-05 14:37:00,70.0,53.1,30.06,West,270,2.7,-999.0,55,-99.99,,,0.00,Acu-Link.com,2013-09-05 18:37:00,
2013-09-05 14:52:00,66.6,51.4,30.06,NNE,22,1.1,-999.0,58,-99.99,,,0.00,Acu-Link.com,2013-09-05 18:52:00,
2013-09-05 15:07:00,70.3,52.9,30.07,NW,315,3.7,-999.0,54,-99.99,,,0.00,Acu-Link.com,2013-09-05 19:07:00,
2013-09-05 15:23:00,70.0,52.1,30.06,NNE,22,4.2,-999.0,53,-99.99,,,0.00,Acu-Link.com,2013-09-05 19:23:00,
2013-09-05 15:38:00,70.9,52.9,30.08,West,270,2.2,-999.0,53,-99.99,,,0.00,Acu-Link.com,2013-09-05 19:38:00,
2013-09-05 15:53:00,66.9,51.2,30.07,WNW,292,0.0,-999.0,57,-99.99,,,0.00,Acu-Link.com,2013-09-05 19:53:00,
2013-09-05 16:09:00,67.3,49.6,30.06,ESE,112,2.2,-999.0,53,-99.99,,,0.00,Acu-Link.com,2013-09-05 20:09:00,
2013-09-05 16:24:00,66.4,48.2,30.08,WSW,247,5.3,-999.0,52,-99.99,,,0.00,Acu-Link.com,2013-09-05 20:24:00,
2013-09-05 16:39:00,68.7,49.3,30.08,NNW,337,2.2,-999.0,50,-99.99,,,0.00,Acu-Link.com,2013-09-05 20:39:00,
2013-09-05 16:54:00,67.3,50.1,30.08,ENE,67,2.7,-999.0,54,-99.99,,,0.00,Acu-Link.com,2013-09-05 20:54:00,
2013-09-05 17:10:00,65.7,49.1,30.07,NNW,337,2.2,-999.0,55,-99.99,,,0.00,Acu-Link.com,2013-09-05 21:10:00,
2013-09-05 17:25:00,64.2,48.2,30.08,NNW,337,2.7,-999.0,56,-99.99,,,0.00,Acu-Link.com,2013-09-05 21:25:00,
2013-09-05 17:40:00,63.3,48.3,30.09,NW,315,2.7,-999.0,58,-99.99,,,0.00,Acu-Link.com,2013-09-05 21:40:00,
2013-09-05 17:56:00,62.6,48.1,30.09,NNE,22,2.7,-999.0,59,-99.99,,,0.00,Acu-Link.com,2013-09-05 21:56:00,
2013-09-05 18:11:00,62.1,47.6,30.10,NNE,22,1.7,-999.0,59,-99.99,,,0.00,Acu-Link.com,2013-09-05 22:11:00,
2013-09-05 18:26:00,61.3,47.3,30.09,ENE,67,2.7,-999.0,60,-99.99,,,0.00,Acu-Link.com,2013-09-05 22:26:00,
2013-09-05 18:41:00,60.6,47.1,30.09,NNW,337,2.2,-999.0,61,-99.99,,,0.00,Acu-Link.com,2013-09-05 22:41:00,
2013-09-05 18:57:00,59.9,47.3,30.09,NW,315,2.2,-999.0,63,-99.99,,,0.00,Acu-Link.com,2013-09-05 22:57:00,
2013-09-05 19:12:00,59.2,47.0,30.11,NNW,337,0.0,-999.0,64,-99.99,,,0.00,Acu-Link.com,2013-09-05 23:12:00,
2013-09-05 19:27:00,57.9,47.8,30.10,SSW,202,0.0,-999.0,69,-99.99,,,0.00,Acu-Link.com,2013-09-05 23:27:00,
2013-09-05 19:42:00,55.9,47.7,30.10,South,180,0.0,-999.0,74,-99.99,,,0.00,Acu-Link.com,2013-09-05 23:42:00,
2013-09-05 19:58:00,54.3,46.9,30.11,South,180,0.0,-999.0,76,-99.99,,,0.00,Acu-Link.com,2013-09-05 23:58:00,
2013-09-05 20:13:00,53.2,46.9,30.11,South,180,0.0,-999.0,79,-99.99,,,0.00,Acu-Link.com,2013-09-06 00:13:00,
2013-09-05 20:28:00,52.2,47.2,30.12,South,180,0.0,-999.0,83,-99.99,,,0.00,Acu-Link.com,2013-09-06 00:28:00,
2013-09-05 20:44:00,51.6,47.2,30.12,SSW,202,0.0,-999.0,85,-99.99,,,0.00,Acu-Link.com,2013-09-06 00:44:00,
2013-09-05 20:59:00,51.1,48.0,30.12,South,180,0.0,-999.0,89,-99.99,,,0.00,Acu-Link.com,2013-09-06 00:59:00,
2013-09-05 21:15:00,50.4,47.9,30.12,SSW,202,0.0,-999.0,91,-99.99,,,0.00,Acu-Link.com,2013-09-06 01:15:00,
2013-09-05 21:30:00,50.0,48.1,30.13,South,180,0.0,-999.0,93,-99.99,,,0.00,Acu-Link.com,2013-09-06 01:30:00,
2013-09-05 21:45:00,49.5,47.3,30.13,SSW,202,0.0,-999.0,92,-99.99,,,0.00,Acu-Link.com,2013-09-06 01:45:00,
2013-09-05 22:00:00,49.1,46.9,30.14,SSW,202,0.0,-999.0,92,-99.99,,,0.00,Acu-Link.com,2013-09-06 02:00:00,
2013-09-05 22:16:00,48.7,47.1,30.14,SW,225,0.0,-999.0,94,-99.99,,,0.00,Acu-Link.com,2013-09-06 02:16:00,
2013-09-05 22:31:00,48.6,48.1,30.14,SSW,202,0.0,-999.0,98,-99.99,,,0.00,Acu-Link.com,2013-09-06 02:31:00,
2013-09-05 22:46:00,48.4,47.9,30.14,NNW,337,0.0,-999.0,98,-99.99,,,0.00,Acu-Link.com,2013-09-06 02:46:00,
2013-09-05 23:01:00,48.4,47.9,30.15,North,0,0.0,-999.0,98,-99.99,,,0.00,Acu-Link.com,2013-09-06 03:01:00,
2013-09-05 23:17:00,48.6,48.1,30.15,ESE,112,0.0,-999.0,98,-99.99,,,0.00,Acu-Link.com,2013-09-06 03:17:00,
2013-09-05 23:32:00,49.1,48.6,30.15,NW,315,0.0,-999.0,98,-99.99,,,0.00,Acu-Link.com,2013-09-06 03:32:00,
2013-09-05 23:47:00,48.7,47.3,30.14,SE,135,0.0,-999.0,95,-99.99,,,0.00,Acu-Link.com,2013-09-06 03:47:00,